Weather reports worldwide

Advertisment
Braemar, United Kingdom (99089): temperature & dewpoint: 30.05.2020 07:00:00 - 05.06.2020 07:00:00 (BST)Braemar, United Kingdom (99089): temperature -20cm & temperature -100cm: 30.05.2020 07:00:00 - 05.06.2020 07:00:00 (BST)Braemar, United Kingdom (99089): precipitation: 30.05.2020 07:00:00 - 05.06.2020 07:00:00 (BST)
Date & Time tt [°C] td [°C] tt -20cm [°C] tt -100cm [°C] rr [mm]
05.06.2020 07:00:00 - - - - -
05.06.2020 06:00:00 - - - - -
05.06.2020 05:00:00 4,2 1,4 - - 0,4
05.06.2020 04:00:00 4,1 1,3 - - 0,0
05.06.2020 03:00:00 4,8 0,2 - - 0,0
05.06.2020 02:00:00 4,5 0,9 - - 0,2
05.06.2020 01:00:00 5,0 2,0 - - 0,2
05.06.2020 00:00:00 4,8 1,7 - - 0,0
04.06.2020 23:00:00 5,3 1,6 - - 0,2
04.06.2020 22:00:00 5,6 2,5 - - 0,0
04.06.2020 21:00:00 6,9 2,6 - - 0,0
04.06.2020 20:00:00 7,3 3,1 - - 0,0
04.06.2020 19:00:00 7,5 3,1 - - 0,0
04.06.2020 18:00:00 7,6 4,7 - - 0,0
04.06.2020 17:00:00 6,7 5,0 - - 0,0
04.06.2020 16:00:00 7,4 5,5 - - 1,4
04.06.2020 15:00:00 8,9 6,2 - - 0,6
04.06.2020 14:00:00 9,0 5,9 - - 3,0
04.06.2020 13:00:00 8,3 6,2 - - 0,6
04.06.2020 12:00:00 9,6 5,6 - - 0,0
04.06.2020 11:00:00 9,0 5,1 - - 0,0
04.06.2020 10:00:00 7,8 5,0 12,0 11,2 0,4
04.06.2020 09:00:00 7,5 3,7 - - 0,0
04.06.2020 08:00:00 7,0 3,1 - - 0,0
04.06.2020 07:00:00 6,0 2,4 - - 0,0
04.06.2020 06:00:00 4,3 1,9 - - 0,0
04.06.2020 05:00:00 4,3 1,4 - - 0,0
04.06.2020 04:00:00 4,6 1,2 - - 0,0
04.06.2020 03:00:00 6,3 1,2 - - 0,0
04.06.2020 02:00:00 6,3 1,5 - - 0,0
04.06.2020 01:00:00 5,6 3,4 - - 0,0
04.06.2020 00:00:00 6,3 3,3 - - 0,0
03.06.2020 23:00:00 7,0 1,9 - - 0,0
03.06.2020 22:00:00 7,4 1,8 - - 0,0
03.06.2020 21:00:00 7,8 2,5 - - 0,0
03.06.2020 20:00:00 8,3 2,7 - - 0,0
03.06.2020 19:00:00 9,0 2,9 - - 0,0
03.06.2020 18:00:00 9,7 3,1 - - 0,0
03.06.2020 17:00:00 9,2 4,5 - - 0,0
03.06.2020 16:00:00 9,0 5,7 - - 0,0
03.06.2020 15:00:00 9,2 4,7 - - 0,0
03.06.2020 14:00:00 9,4 4,7 - - 0,0
03.06.2020 13:00:00 10,0 6,0 - - 0,0
03.06.2020 12:00:00 8,6 4,5 - - 0,0
03.06.2020 11:00:00 8,1 3,5 - - 0,0
03.06.2020 10:00:00 7,8 3,3 12,7 11,2 0,0
03.06.2020 09:00:00 6,6 2,7 - - 0,0
03.06.2020 08:00:00 6,7 3,1 - - 0,0
03.06.2020 07:00:00 6,4 3,6 - - 0,0
03.06.2020 06:00:00 6,4 2,5 - - 0,0
03.06.2020 05:00:00 6,2 2,8 - - 0,0
03.06.2020 04:00:00 6,1 4,0 - - 0,0
03.06.2020 03:00:00 6,3 4,2 - - 0,0
03.06.2020 02:00:00 6,8 4,3 - - 0,0
03.06.2020 01:00:00 7,0 5,3 - - 0,2
03.06.2020 00:00:00 7,3 5,5 - - 0,2
02.06.2020 23:00:00 7,4 5,6 - - 0,4
02.06.2020 22:00:00 8,4 6,7 - - 1,2
02.06.2020 21:00:00 9,2 7,3 - - 1,4
02.06.2020 20:00:00 9,9 8,1 - - 2,4
02.06.2020 19:00:00 11,5 10,0 - - 6,4
02.06.2020 18:00:00 13,1 11,3 - - 0,4
02.06.2020 17:00:00 14,1 12,0 - - 0,4
02.06.2020 16:00:00 15,0 11,9 - - 0,2
02.06.2020 15:00:00 16,1 10,2 - - 0,0
02.06.2020 14:00:00 16,0 10,1 - - 0,0
02.06.2020 13:00:00 16,4 10,0 - - 0,0
02.06.2020 12:00:00 16,1 9,1 - - 0,0
02.06.2020 11:00:00 15,5 11,6 - - 0,0
02.06.2020 10:00:00 - - - - -
02.06.2020 09:00:00 - - - - -
02.06.2020 08:00:00 11,3 8,4 - - 0,0
02.06.2020 07:00:00 9,3 7,3 - - 0,0
02.06.2020 06:00:00 7,5 6,3 - - 0,0
02.06.2020 05:00:00 6,5 5,1 - - 0,0
02.06.2020 04:00:00 7,8 5,7 - - 0,0
02.06.2020 03:00:00 8,4 5,8 - - 0,0
02.06.2020 02:00:00 9,2 6,3 - - 0,0
02.06.2020 01:00:00 9,2 5,7 - - 0,0
02.06.2020 00:00:00 9,0 5,6 - - 0,0
01.06.2020 23:00:00 10,4 5,1 - - 0,0
01.06.2020 22:00:00 13,7 5,7 - - 0,0
01.06.2020 21:00:00 17,1 6,3 - - 0,0
01.06.2020 20:00:00 18,6 7,2 - - 0,0
01.06.2020 19:00:00 18,9 7,8 - - 0,0
01.06.2020 18:00:00 20,1 8,4 - - 0,0
01.06.2020 17:00:00 20,7 8,7 - - 0,0
01.06.2020 16:00:00 22,3 8,6 - - 0,0
01.06.2020 15:00:00 22,2 8,7 - - 0,0
01.06.2020 14:00:00 21,9 7,6 - - 0,0
01.06.2020 13:00:00 21,9 5,4 - - 0,0
01.06.2020 12:00:00 21,1 6,4 - - 0,0
01.06.2020 11:00:00 20,3 6,1 - - 0,0
01.06.2020 10:00:00 19,2 8,3 13,7 10,9 0,0
01.06.2020 09:00:00 13,8 7,2 - - 0,0
01.06.2020 08:00:00 9,4 4,9 - - 0,0
01.06.2020 07:00:00 6,0 4,2 - - 0,0
01.06.2020 06:00:00 2,3 1,0 - - 0,0
01.06.2020 05:00:00 2,8 1,7 - - 0,0
01.06.2020 04:00:00 2,9 1,7 - - 0,0
01.06.2020 03:00:00 3,7 2,2 - - 0,0
01.06.2020 02:00:00 4,6 2,5 - - 0,0
01.06.2020 01:00:00 5,0 2,6 - - 0,0
01.06.2020 00:00:00 6,5 3,2 - - 0,0
31.05.2020 23:00:00 7,1 2,8 - - 0,0
31.05.2020 22:00:00 10,8 4,0 - - 0,0
31.05.2020 21:00:00 14,9 3,8 - - 0,0
31.05.2020 20:00:00 16,9 3,8 - - 0,0
31.05.2020 19:00:00 18,4 4,2 - - 0,0
31.05.2020 18:00:00 19,3 4,8 - - 0,0
31.05.2020 17:00:00 19,1 3,8 - - 0,0
31.05.2020 16:00:00 19,5 3,9 - - 0,0
31.05.2020 15:00:00 19,2 4,2 - - 0,0
31.05.2020 14:00:00 18,8 3,6 - - 0,0
31.05.2020 13:00:00 18,4 4,1 - - 0,0
31.05.2020 12:00:00 18,4 2,5 - - 0,0
31.05.2020 11:00:00 17,1 1,0 - - 0,0
31.05.2020 10:00:00 15,9 2,8 13,5 10,7 0,0
31.05.2020 09:00:00 11,2 4,0 - - 0,0
31.05.2020 08:00:00 7,2 2,2 - - 0,0
31.05.2020 07:00:00 2,6 -0,1 - - 0,0
31.05.2020 06:00:00 -0,1 -1,6 - - 0,0
31.05.2020 05:00:00 -0,5 -1,3 - - 0,0
31.05.2020 04:00:00 0,4 -0,4 - - 0,0
31.05.2020 03:00:00 0,9 -0,4 - - 0,0
31.05.2020 02:00:00 2,6 0,5 - - 0,0
31.05.2020 01:00:00 3,2 0,8 - - 0,0
31.05.2020 00:00:00 4,1 0,8 - - 0,0
30.05.2020 23:00:00 5,9 0,7 - - 0,0
30.05.2020 22:00:00 8,8 1,7 - - 0,0
30.05.2020 21:00:00 12,1 2,5 - - 0,0
30.05.2020 20:00:00 14,6 1,6 - - 0,0
30.05.2020 19:00:00 15,7 2,1 - - 0,0
30.05.2020 18:00:00 16,7 5,1 - - 0,0
30.05.2020 17:00:00 17,0 5,5 - - 0,0
30.05.2020 16:00:00 17,6 5,9 - - 0,0
30.05.2020 15:00:00 17,9 5,4 - - 0,0
30.05.2020 14:00:00 18,0 6,8 - - 0,0
30.05.2020 13:00:00 18,9 8,7 - - 0,0
30.05.2020 12:00:00 18,4 8,6 - - 0,0
30.05.2020 11:00:00 17,9 8,7 - - 0,0
30.05.2020 10:00:00 17,8 9,1 13,7 10,2 0,0
30.05.2020 09:00:00 16,6 10,9 - - 0,0
30.05.2020 08:00:00 9,6 7,9 - - 0,0
30.05.2020 07:00:00 7,5 6,5 - - 0,0

tt = temperature
td = dewpoint
tt -20cm = temperature -20cm
tt -100cm = temperature -100cm
rr = precipitation

Next stations